Regional Weather Roundup
Issued by NWS

Home | Current Version | Previous Version | Text Only | Print | Product List | Glossary Off
Versions: 1 2 3 4 5 6 7 8 9 10 11 12 13 14 15 16 17 18 19 20 21 22 23 24 25 26 27

000
ASUS45 KCYS 050310
RWRWY

WYOMING REGIONAL WEATHER ROUNDUP
NATIONAL WEATHER SERVICE CHEYENNE WY
900 PM MDT WED MAY 04 2016

NOTE:  "FAIR" INDICATES FEW OR NO CLOUDS BELOW 12,000 FEET
WITH NO SIGNIFICANT WEATHER AND/OR OBSTRUCTIONS TO VISIBILITY.

WYZ001-050400-
YELLOWSTONE NATIONAL PARK

CITY           SKY/WX    TMP DP  RH WIND       PRES   REMARKS
LK YELLOWSTONE   N/A     42  31  64 CALM      30.21R
W YELLOWSTONE  NOT AVBL

$$
WYZ002>013-054>058-071-098>099-050400-
NORTHERN WYOMING

CITY           SKY/WX    TMP DP  RH WIND       PRES   REMARKS
JACKSON        NOT AVBL
CODY           FAIR      66  30  26 SW3       30.00S
GREYBULL       FAIR      73  27  18 SE6       29.93S
WORLAND        FAIR      63  37  38 SE13      29.95S
SHERIDAN       FAIR      55  45  68 S6        29.96S
BUFFALO        FAIR      57  40  52 W6        30.04R
GILLETTE       FAIR      52  43  71 SW7       30.01R
HULETT         FAIR      64  39  39 CALM      30.02R
NEWCASTLE      FAIR      61  36  39 SE9       30.04S

$$
WYZ014>020-022>026-101>103-050400-
CENTRAL WYOMING

CITY           SKY/WX    TMP DP  RH WIND       PRES   REMARKS
BIG PINEY      FAIR      59  26  28 CALM      30.13S
PINEDALE       FAIR      52  27  37 NW3       30.15R
DUBOIS         FAIR      55  18  22 CALM      30.14R
LANDER         FAIR      62  23  22 SW17      30.03S
RIVERTON       FAIR      67  29  24 E6        30.04S
CASPER         FAIR      55  33  43 S5        30.06S
DOUGLAS        FAIR      56  41  57 SE6       30.08R

$$
WYZ021-027>030-104>119-050400-
SOUTHERN WYOMING

CITY           SKY/WX    TMP DP  RH WIND       PRES   REMARKS
EVANSTON       FAIR      60  29  30 VRB5      30.14R
KEMMERER         N/A     59  23  25 S6        30.14S
FORT BRIDGER   CLEAR     57  27  30 SW14      30.16S
ROCK SPRINGS   FAIR      56  28  34 S8        30.14S
DIXON          FAIR      51  38  59 NE5       30.18R
RAWLINS        FAIR      57  28  33 SW6       30.16R
SARATOGA       FAIR      52  27  37 W7        30.18F
LARAMIE        FAIR      51  36  56 SE13      30.20S
CHEYENNE       FAIR      59  34  39 S8        30.17R
TORRINGTON     FAIR      62  41  46 SE12      30.06R
PINE BLUFFS    FAIR      57  37  47 S10       30.14R

$$




USA.gov is the U.S. government's official web portal to all federal, state and local government web resources and services.